PROBA-1 1 26958U 01049B 26255.21293938 .00000960 00000+0 65310-4 0 9994 2 26958 97.9620 266.8163 0054131 186.7276 173.3230 15.07796307356736 CUTE-1 (CO-55) 1 27844U 03031E 26255.00270449 .00000180 00000+0 96670-4 0 9998 2 27844 98.6770 262.4840 0008493 297.1642 62.8671 14.24379869204037 CUBESAT XI-IV (CO-57) 1 27848U 03031J 26254.54295535 .00000149 00000+0 84349-4 0 9998 2 27848 98.6802 261.6728 0008661 319.6234 40.4301 14.23658642203665 APRIZESAT 4 1 35684U 09041D 26255.17364090 .00000445 00000+0 59606-4 0 9992 2 35684 98.1350 332.2012 0044040 40.8709 319.5793 14.83986662924260 APRIZESAT 3 1 35686U 09041F 26255.03074028 .00000922 00000+0 84057-4 0 9996 2 35686 98.2178 52.4925 0062061 139.6292 220.9559 14.96444580929365 PROBA-2 1 36037U 09059B 26254.96554163 .00000100 00000+0 33741-4 0 9992 2 36037 98.2481 77.1383 0013628 18.1438 342.0243 14.54892934894140 APRIZESAT 5 1 37792U 11044E 26255.08717990 .00000686 00000+0 93433-4 0 9994 2 37792 98.2473 190.6041 0053439 82.9807 277.7478 14.81203651811656 APRIZESAT 6 1 37793U 11044F 26254.72135512 .00000412 00000+0 65449-4 0 9992 2 37793 98.2285 166.9595 0043220 167.2665 222.6812 14.77018811809929 PROBA-V 1 39159U 13021A 26254.92026760 .00000031 00000+0 31763-4 0 9992 2 39159 98.3697 229.2878 0003116 229.2858 130.8051 14.23612519693455 APRIZESAT 7 1 39416U 13066A 26254.82276962 .00000991 00000+0 10312-3 0 9998 2 39416 97.7792 206.8416 0034210 284.9458 74.7974 14.91742007694140 APRIZESAT 8 1 39425U 13066K 26255.10651727 .00000821 00000+0 94439-4 0 9991 2 39425 97.8290 201.3952 0045861 1.8848 358.2533 14.87789119692590 BUGSAT-1 (TITA) 1 40014U 14033E 26255.22809539 .00003177 00000+0 16640-3 0 9995 2 40014 98.0432 352.9163 0026249 242.0128 117.8447 15.16341916669020 SAUDISAT 4 1 40016U 14033G 26254.95263477 .00000519 00000+0 74862-4 0 9999 2 40016 97.7714 38.1568 0045439 149.4833 210.9037 14.79636265658905 APRIZESAT 9 1 40018U 14033J 26254.94730066 .00000347 00000+0 58666-4 0 9996 2 40018 97.9183 26.0869 0064625 281.6394 77.7566 14.74302714656344 APRIZESAT 10 1 40019U 14033K 26254.92718949 .00000242 00000+0 46049-4 0 9997 2 40019 97.9759 20.0037 0078580 357.8676 2.2184 14.70963886655009 TECHDEMOSAT-1 (TDS-1) 1 40076U 14037H 26255.01024900 .00006091 00000+0 33607-3 0 9995 2 40076 98.3872 255.9365 0005577 351.0486 9.0643 15.14382638661367 TECHNOSAT 1 42829U 17042E 26255.00456619 .00001648 00000+0 11873-3 0 9991 2 42829 97.4390 49.4446 0018134 153.0581 207.1592 15.05383808499762 FLYING LAPTOP 1 42831U 17042G 26255.22656079 .00001683 00000+0 13406-3 0 9993 2 42831 97.4996 47.6368 0016217 183.9737 176.1361 15.01579806499518 HAWK-A 1 43765U 18099H 26255.08405606 .00004923 00000+0 19352-3 0 9991 2 43765 97.3826 306.2033 0033308 341.9049 18.1001 15.25626816426348 HAWK-B 1 43794U 18099AN 26254.88371909 .00004553 00000+0 19009-3 0 9996 2 43794 97.3876 305.2337 0031220 2.0583 358.0776 15.23711269426238 HAWK-C 1 43799U 18099AT 26255.11967399 .00005826 00000+0 20317-3 0 9990 2 43799 97.3803 307.5919 0038503 339.6826 20.2880 15.29308639427193 SALSAT 1 46495U 20068K 26254.97802253 .00005968 00000+0 20261-3 0 9990 2 46495 97.8880 263.4175 0009470 9.1845 350.9566 15.30885843328636 HAWK-2C 1 47502U 21006CT 26255.04081723 .00004450 00000+0 13082-3 0 9991 2 47502 97.2201 297.6389 0005073 240.8949 119.1788 15.35601082312828 HAWK-2A 1 47505U 21006CW 26255.04125806 .00004418 00000+0 12974-3 0 9998 2 47505 97.2242 298.3701 0004580 246.0296 114.0469 15.35643100312824 HAWK-2B 1 47508U 21006CZ 26255.09482281 .00005237 00000+0 15259-3 0 9998 2 47508 97.2115 296.6200 0005069 242.9404 117.1324 15.35802806312835 HAWK-3B 1 48931U 21059BE 26254.51154603 .00049017 00000+0 30092-3 0 9993 2 48931 97.6561 99.8513 0003546 20.2728 339.8677 15.77133074291424 HAWK-3C 1 48948U 21059BX 26254.57467383 .00052080 00000+0 31945-3 0 9991 2 48948 97.6663 105.7471 0003818 21.6544 338.4882 15.77139518291431 HAWK-3A 1 48957U 21059CG 26255.14558767 .00045318 00000+0 27766-3 0 9994 2 48957 97.6610 103.5180 0003993 18.4977 341.6432 15.77191558291523 HAWK-5C 1 52754U 22057Y 26254.97640407 .00017743 00000+0 27392-3 0 9992 2 52754 97.6672 60.4797 0004805 109.0523 251.1250 15.54185352239810 HAWK-5B 1 52756U 22057AA 26255.16939771 .00015117 00000+0 23370-3 0 9996 2 52756 97.6690 59.0509 0005518 103.8711 256.3156 15.54181210239844 HAWK-5A 1 52757U 22057AB 26254.97605301 .00015719 00000+0 24299-3 0 9993 2 52757 97.6682 59.6707 0005406 107.3004 252.8840 15.54173703239818 HAWK-6B 1 55324U 23011A 26255.18344247 .00003302 00000+0 14317-3 0 9995 2 55324 40.4973 204.3871 0003589 282.0141 78.0266 15.23580272201115 HAWK-6C 1 55326U 23011C 26255.18281167 .00003569 00000+0 15406-3 0 9993 2 55326 40.4962 201.2192 0004341 273.0358 86.9955 15.23584571201124 HAWK-6A 1 55327U 23011D 26255.18283294 .00003505 00000+0 15147-3 0 9999 2 55327 40.4973 202.8517 0003949 269.8255 90.2102 15.23582905201128 HAWK-7A 1 56191U 23054P 26255.15633310 .00004124 00000+0 15291-3 0 9999 2 56191 97.2554 140.2654 0004748 87.6920 272.4863 15.28147130190300 HAWK-7B 1 56193U 23054R 26255.15626935 .00004116 00000+0 15264-3 0 9997 2 56193 97.2579 138.5591 0003811 95.0118 265.1557 15.28149037190308 HAWK-7C 1 56200U 23054Y 26255.15613838 .00004095 00000+0 15186-3 0 9993 2 56200 97.2557 139.3009 0004123 86.8068 273.3644 15.28148750190304